Temp
59 61 58 64 63 60 59 56 56 61 59 57 60 61 66 70 69 68 70 71 73 73 77 76 73 71 68 68 67 67 65 66 66 65 63 61 57 58 55 55 57 58 60 59
58 56 64 59 58 57 56 56 57 60 55 56 59 58 65 67 67 71 73 74 75 76 76 73 71 69 66 67 65 65 65 66 65 66 65 64 60 58 59 53 53 54 55 56
58 60 59 57 53 53 55 54 56 55 54 55 53 55 61 66 65 67 69 72 74 75 75 76 71 68 67 65 64 64 64 65 65 65 65 60 59 56 50 50 49 49 52 52
57 58 54 53 53 56 52 57 55 52 52 50 53 49 61 66 65 63 67 72 73 73 73 72 73 67 66 65 66 64 64 64 64 64 61 59 59 56 54 51 51 47 48 48
55 50 51 51 54 56 54 53 53 51 51 47 53 46 58 55 59 64 68 70 73 74 72 71 70 67 68 65 63 63 63 63 62 63 61 61 61 61 55 55 47 45 45 46
52 53 55 56 51 56 52 52 49 49 49 42 54 49 56 63 62 65 68 71 72 72 69 69 68 66 65 63 61 60 61 61 61 60 60 60 61 57 50 51 48 44 44 45
48 50 52 53 49 51 53 52 44 40 37 40 46 45 55 62 62 63 68 72 69 67 68 67 64 61 60 57 57 58 59 59 60 58 59 60 61 57 54 49 48 45 45 46
46 43 50 54 56 51 48 53 45 34 37 46 38 40 55 61 63 63 65 66 66 62 65 66 65 62 59 56 56 57 56 57 59 57 58 59 60 57 57 52 54 51 51 53
45 45 49 49 55 58 47 43 55 45 31 37 49 55 61 57 59 61 60 65 65 65 64 64 64 61 59 55 55 56 56 55 58 56 57 57 58 55 54 51 56 55 55 51
52 43 46 47 52 51 51 56 43 44 33 33 45 47 52 57 62 63 62 63 64 64 64 63 62 59 57 56 56 55 56 55 55 55 56 56 55 55 55 51 50 48 51 45
54 47 43 46 46 49 48 47 45 48 43 38 38 49 64 62 64 62 63 61 61 61 61 63 61 57 55 54 54 54 54 54 53 53 55 53 52 52 50 46 46 45 44 40
50 44 40 46 49 49 49 51 51 42 36 40 40 45 58 60 59 57 58 58 60 58 60 61 59 56 53 53 53 53 53 52 53 53 53 52 51 51 49 46 46 45 42 41
50 41 32 38 42 43 43 48 49 51 41 37 37 46 55 55 58 58 58 60 60 58 60 58 55 55 55 54 53 52 52 51 51 52 51 50 50 49 49 47 46 45 43 40
48 39 37 37 45 47 39 44 46 47 38 40 43 49 58 58 59 60 62 62 61 61 60 59 58 57 56 54 53 52 51 51 50 50 49 49 49 48 47 44 42 43 42 39
45 33 38 41 46 46 45 45 45 42 46 42 47 49 56 60 61 64 66 67 65 65 62 61 59 59 57 53 52 51 51 50 49 48 48 48 47 47 45 41 40 40 39 38
48 34 40 36 44 44 41 45 45 44 46 46 49 49 61 63 65 63 62 63 63 65 67 66 58 57 53 53 52 51 50 49 47 47 46 46 44 42 40 38 37 36 36 35
34 33 33 31 40 38 31 37 43 46 49 49 43 51 58 57 58 58 60 60 60 62 63 63 61 60 57 56 54 52 51 49 43 42 41 41 40 39 38 36 35 34 34 35
34 33 32 29 32 24 39 51 51 46 48 50 50 52 55 57 60 59 61 59 59 59 58 59 60 62 59 55 52 51 46 43 40 39 38 38 38 37 37 35 35 34 34 33
41 35 31 27 28 35 41 46 45 43 43 51 50 52 55 57 55 56 61 60 60 60 60 57 55 53 53 51 50 45 41 40 39 38 38 37 37 35 35 34 34 34 33 32
38 39 32 31 26 24 42 48 46 49 36 53 52 51 52 53 44 51 56 53 52 50 47 46 46 45 45 46 42 39 38 37 36 38 38 37 36 34 34 35 34 34 33 31
30 30 28 28 27 34 41 41 44 32 37 38 40 47 47 46 52 55 47 49 46 43 43 43 43 40 39 38 37 36 36 35 36 36 35 35 35 34 35 34 34 32 31 29
31 29 29 30 27 26 42 39 37 39 39 42 43 44 43 45 46 46 47 45 44 41 40 38 37 35 35 35 35 34 34 33 33 33 33 32 33 33 33 32 32 31 29 28
29 36 32 32 31 43 40 42 45 40 37 40 40 43 43 42 44 45 44 42 40 36 34 33 33 32 32 31 33 32 31 31 30 30 29 30 32 32 32 31 30 31 30 29
38 42 34 35 41 41 40 42 41 41 38 38 37 39 39 38 41 38 37 35 34 31 30 30 30 28 27 28 28 30 29 30 29 29 29 30 30 31 31 32 32 31 30 29
38 36 33 33 38 40 39 41 41 40 40 39 39 37 38 37 37 37 33 31 30 30 29 28 27 25 24 26 27 29 31 32 31 31 30 31 31 31 31 31 31 31 32 31
39 36 33 32 42 40 41 41 39 39 39 39 36 36 36 34 36 33 29 30 29 28 27 25 23 22 21 22 22 24 29 32 31 29 29 30 31 31 30 29 29 33 33 33
MSLP
1017.65 1017.28 1016.50 1016.05 1016.53 1016.82 1016.54 1016.44 1016.55 1016.76 1017.45 1017.41 1016.22 1014.76 1013.95 1013.68 1013.25 1012.70 1012.35 1012.03 1011.83 1011.74 1012.05 1012.91 1013.77 1014.69 1015.58 1016.29 1016.99 1017.39 1017.92 1018.45 1019.10 1019.38 1019.88 1020.48 1020.56 1021.07 1021.52 1021.69 1021.84 1021.91 1022.08 1022.41
1017.87 1016.93 1016.52 1017.04 1017.26 1017.34 1017.19 1016.93 1016.81 1016.92 1017.64 1017.59 1016.06 1014.40 1013.24 1012.89 1011.84 1011.28 1010.92 1010.51 1010.44 1010.51 1010.98 1011.83 1012.81 1013.76 1014.47 1014.99 1015.77 1016.48 1017.02 1017.63 1018.19 1018.68 1019.02 1019.42 1020.10 1020.85 1021.08 1021.65 1021.87 1021.98 1022.11 1022.30
1016.80 1016.81 1016.94 1017.36 1017.72 1017.67 1017.46 1017.18 1017.18 1017.41 1017.78 1017.49 1016.47 1013.88 1012.17 1011.10 1011.04 1010.82 1010.18 1009.68 1009.59 1009.30 1009.58 1010.50 1011.79 1012.74 1013.66 1014.23 1014.86 1015.46 1016.11 1016.78 1017.45 1018.04 1018.70 1019.51 1020.19 1020.78 1021.30 1021.66 1021.85 1022.04 1022.16 1022.23
1017.39 1017.39 1017.46 1017.58 1017.44 1017.53 1017.45 1017.30 1017.62 1017.88 1018.07 1017.12 1016.79 1013.17 1011.35 1010.37 1010.07 1010.02 1009.37 1008.70 1008.39 1008.51 1009.04 1009.80 1010.57 1011.78 1012.45 1012.85 1013.80 1014.82 1015.68 1016.26 1016.94 1017.50 1018.05 1018.33 1018.44 1019.08 1019.72 1020.60 1021.36 1021.89 1022.24 1022.26
1016.90 1017.28 1017.55 1017.52 1017.04 1017.45 1017.61 1017.75 1018.03 1018.35 1018.11 1017.67 1015.88 1015.08 1010.26 1010.19 1008.97 1008.76 1007.99 1007.87 1007.84 1008.01 1008.73 1009.24 1009.95 1010.79 1011.38 1012.48 1013.12 1013.80 1014.65 1015.43 1016.09 1016.71 1017.14 1017.44 1017.74 1018.26 1019.35 1020.20 1021.14 1021.60 1022.22 1022.19
1017.52 1017.80 1017.70 1017.49 1017.85 1017.91 1018.35 1018.29 1018.69 1018.82 1018.47 1016.95 1014.46 1013.98 1009.62 1009.07 1008.31 1007.93 1007.50 1007.28 1007.52 1008.05 1008.59 1009.03 1009.74 1010.60 1011.18 1011.99 1012.66 1013.53 1014.22 1014.64 1015.26 1015.91 1016.41 1016.68 1016.92 1017.86 1018.72 1019.64 1020.48 1021.23 1021.87 1022.31
1017.35 1017.48 1017.62 1017.75 1017.98 1018.58 1018.13 1017.89 1018.11 1018.23 1017.98 1015.35 1014.62 1013.62 1009.17 1009.02 1008.34 1007.81 1007.57 1007.06 1007.80 1008.28 1008.61 1009.10 1009.69 1010.50 1011.22 1012.14 1012.79 1012.94 1013.49 1013.92 1014.65 1015.33 1015.65 1016.09 1016.46 1017.49 1017.94 1018.93 1019.68 1020.49 1021.24 1021.78
1016.24 1016.68 1016.81 1016.81 1016.30 1016.78 1017.61 1016.92 1016.37 1015.94 1016.33 1014.99 1015.02 1011.81 1007.92 1008.36 1008.49 1008.07 1007.86 1007.42 1007.81 1008.43 1008.87 1009.04 1009.41 1010.23 1011.04 1011.70 1012.56 1012.90 1013.23 1013.40 1013.94 1014.82 1015.21 1015.82 1016.32 1017.17 1017.66 1018.41 1019.05 1019.72 1020.16 1020.56
1015.61 1015.88 1016.18 1016.35 1015.95 1016.15 1017.29 1016.97 1015.72 1016.03 1016.88 1016.04 1012.77 1009.38 1008.03 1008.18 1007.84 1007.57 1007.67 1007.38 1007.23 1007.98 1008.46 1008.85 1009.23 1009.88 1010.50 1011.44 1012.28 1012.89 1013.05 1013.42 1013.60 1014.19 1014.69 1015.20 1015.77 1016.56 1017.04 1017.94 1018.66 1019.23 1019.69 1020.24
1015.10 1015.77 1016.23 1016.66 1016.70 1016.49 1016.02 1015.55 1016.21 1016.17 1015.61 1014.47 1011.37 1009.96 1007.44 1007.58 1007.25 1006.96 1007.29 1007.50 1007.56 1007.81 1008.16 1008.68 1009.51 1010.18 1010.82 1011.22 1011.68 1012.44 1012.62 1012.93 1013.58 1014.17 1014.46 1014.75 1015.16 1015.76 1016.37 1017.27 1018.01 1018.75 1019.46 1020.20
1015.28 1016.02 1016.74 1016.88 1016.18 1015.59 1016.34 1015.75 1015.63 1015.22 1014.59 1013.11 1011.40 1008.36 1006.95 1006.77 1006.78 1007.10 1007.23 1007.58 1007.66 1007.90 1008.10 1008.61 1009.34 1010.20 1011.09 1011.61 1011.89 1012.05 1012.39 1012.68 1013.13 1013.80 1014.25 1014.80 1015.13 1015.65 1016.23 1016.77 1017.41 1018.16 1019.02 1019.66
1015.85 1016.17 1016.07 1015.68 1015.78 1015.84 1015.43 1014.46 1014.32 1014.02 1013.97 1013.60 1012.15 1008.06 1007.08 1007.23 1007.44 1007.53 1007.82 1007.89 1008.06 1008.22 1008.37 1008.68 1009.23 1010.10 1010.79 1011.42 1011.71 1011.79 1012.05 1012.32 1012.53 1013.16 1013.71 1014.25 1014.89 1015.43 1015.94 1016.54 1017.14 1017.89 1018.63 1019.39
1016.05 1016.59 1016.80 1015.85 1016.27 1016.12 1015.26 1014.44 1014.06 1013.76 1014.05 1012.53 1011.23 1007.52 1007.08 1007.68 1007.61 1007.74 1007.76 1007.84 1008.12 1008.33 1008.48 1009.05 1009.52 1009.90 1010.36 1010.94 1011.34 1011.33 1011.78 1012.11 1012.40 1012.81 1013.34 1013.83 1014.26 1014.92 1015.49 1016.09 1016.74 1017.51 1018.30 1019.02
1016.78 1016.80 1016.09 1014.58 1013.39 1013.63 1014.18 1013.51 1013.46 1013.38 1013.05 1010.86 1010.02 1007.40 1006.87 1007.30 1007.17 1007.33 1007.43 1007.31 1007.64 1007.67 1008.17 1008.65 1008.92 1009.01 1009.55 1010.17 1010.52 1011.40 1011.06 1011.53 1011.99 1012.42 1012.84 1013.10 1013.52 1014.16 1015.01 1015.67 1016.49 1017.24 1018.02 1018.72
1017.51 1016.81 1016.07 1014.60 1014.17 1013.81 1013.05 1012.79 1012.75 1012.63 1010.99 1010.75 1008.08 1008.26 1005.24 1006.98 1006.89 1006.91 1006.81 1006.36 1006.67 1006.59 1006.99 1007.57 1007.96 1008.26 1008.83 1009.61 1010.02 1010.83 1010.39 1010.84 1011.48 1011.90 1012.08 1012.30 1013.06 1013.75 1014.56 1015.29 1016.13 1017.01 1017.86 1018.51
1016.85 1016.18 1016.18 1014.64 1013.59 1013.35 1012.76 1012.52 1012.17 1010.71 1009.96 1010.05 1008.78 1007.66 1005.11 1006.38 1006.21 1006.42 1006.27 1006.10 1006.20 1006.22 1006.30 1006.36 1006.89 1007.45 1008.05 1008.52 1008.90 1009.10 1009.36 1009.91 1010.63 1011.00 1011.24 1011.89 1012.58 1013.34 1014.06 1014.99 1015.76 1016.58 1017.33 1018.10
1017.58 1016.79 1016.11 1014.38 1013.24 1013.44 1012.26 1010.75 1009.92 1009.77 1009.16 1008.61 1008.35 1005.73 1005.46 1005.40 1005.82 1005.83 1005.97 1006.30 1006.03 1005.92 1005.93 1006.06 1006.32 1006.43 1006.65 1006.89 1007.16 1007.74 1008.24 1009.23 1009.97 1010.42 1010.97 1011.56 1012.23 1012.96 1013.77 1014.49 1015.26 1016.05 1016.86 1017.69
1017.24 1017.32 1016.71 1015.24 1014.40 1012.80 1010.54 1009.73 1009.33 1009.26 1008.78 1008.42 1008.01 1006.75 1005.66 1005.54 1005.94 1005.78 1005.65 1005.88 1005.71 1005.84 1005.93 1005.91 1005.97 1005.95 1006.17 1006.36 1006.80 1007.32 1007.95 1008.70 1009.52 1010.25 1010.81 1011.48 1012.17 1012.85 1013.58 1014.42 1015.03 1015.84 1016.51 1017.09
1015.78 1016.44 1015.93 1014.89 1013.56 1012.06 1010.76 1009.32 1009.07 1008.75 1007.71 1007.65 1007.32 1006.34 1005.57 1005.35 1006.45 1004.98 1004.94 1005.83 1005.68 1005.81 1005.89 1006.04 1006.39 1006.57 1006.53 1006.58 1006.83 1007.28 1008.02 1008.59 1009.22 1009.60 1010.18 1010.88 1011.57 1012.50 1013.39 1014.18 1014.95 1015.69 1016.38 1017.08
1015.42 1015.20 1015.19 1014.08 1012.60 1011.00 1009.15 1008.62 1008.78 1008.90 1008.25 1006.62 1006.74 1006.22 1005.80 1006.12 1006.76 1004.65 1005.44 1005.75 1006.22 1006.68 1007.00 1007.21 1007.38 1007.37 1007.19 1007.10 1007.45 1007.74 1008.00 1008.50 1008.98 1009.49 1010.08 1010.73 1011.29 1011.84 1012.49 1013.35 1014.32 1015.23 1016.10 1016.89
1014.95 1014.46 1013.35 1012.75 1011.93 1010.27 1009.14 1009.28 1009.61 1010.17 1009.46 1008.48 1007.64 1007.62 1007.13 1007.10 1006.52 1006.01 1006.72 1006.79 1007.28 1007.70 1007.92 1007.98 1007.96 1008.13 1008.24 1008.15 1008.16 1008.21 1008.62 1008.91 1009.13 1009.56 1010.25 1010.96 1011.57 1012.29 1012.91 1013.43 1014.14 1015.27 1016.28 1017.18
1013.81 1013.22 1012.13 1011.78 1011.12 1010.58 1010.40 1010.41 1010.84 1011.16 1009.82 1009.80 1009.24 1008.87 1008.28 1008.21 1007.97 1007.62 1007.49 1007.66 1007.97 1008.28 1008.62 1008.84 1008.86 1008.87 1008.96 1008.81 1008.77 1008.87 1009.31 1009.50 1009.73 1010.13 1010.59 1011.30 1011.86 1012.62 1013.37 1014.20 1014.61 1015.37 1016.34 1017.26
1013.06 1012.15 1011.98 1011.69 1010.98 1010.12 1010.43 1011.28 1010.86 1011.03 1011.19 1011.09 1010.54 1010.26 1009.46 1009.28 1009.11 1008.63 1008.38 1008.46 1008.86 1009.43 1009.75 1009.95 1009.91 1009.73 1009.65 1009.50 1009.30 1009.44 1009.98 1010.19 1010.45 1010.81 1011.13 1011.66 1012.28 1012.86 1013.61 1014.26 1014.74 1015.68 1016.39 1017.05
1011.95 1011.72 1011.80 1011.48 1010.01 1010.23 1010.20 1010.40 1010.45 1010.81 1011.24 1011.04 1010.59 1010.91 1010.39 1010.28 1010.21 1009.67 1009.99 1009.78 1009.77 1010.40 1010.70 1010.82 1010.99 1011.00 1010.98 1010.59 1010.22 1010.18 1010.48 1010.71 1010.91 1011.39 1011.93 1012.21 1012.46 1013.23 1013.70 1014.10 1014.79 1015.54 1015.75 1016.49
1011.74 1011.90 1011.30 1010.59 1010.34 1010.19 1010.15 1010.18 1010.37 1010.54 1010.39 1010.34 1010.20 1010.36 1010.36 1010.70 1010.40 1010.48 1010.82 1010.83 1010.72 1010.89 1011.35 1011.63 1011.79 1012.10 1012.00 1011.53 1011.54 1011.37 1011.23 1011.53 1011.55 1011.89 1012.39 1012.84 1013.22 1013.61 1013.78 1014.57 1015.18 1015.47 1016.04 1016.25
1011.29 1010.71 1010.72 1009.75 1009.95 1010.14 1010.02 1010.23 1010.43 1010.57 1010.53 1010.46 1010.62 1010.47 1010.51 1010.80 1011.01 1011.04 1011.60 1011.59 1011.35 1011.52 1011.90 1012.67 1013.10 1013.21 1013.25 1012.88 1012.75 1012.82 1012.34 1011.97 1012.65 1012.51 1012.82 1013.25 1013.76 1014.43 1014.82 1015.17 1015.65 1016.01 1016.35 1016.80
Wind_Speed
2 7 10 15 9 1 4 3 5 4 2 4 12 20 19 16 17 19 19 19 18 20 17 14 15 17 17 17 17 18 17 16 12 10 9 8 8 6 3 3 5 6 8 11
4 11 12 5 7 4 4 7 12 9 2 6 12 22 21 19 22 20 20 20 21 20 18 16 15 17 19 20 19 19 19 18 15 11 10 6 8 6 5 4 5 4 7 9
13 4 8 7 7 9 8 11 9 9 2 7 11 16 15 10 15 18 22 23 23 24 22 18 16 17 16 19 20 19 20 19 17 16 10 6 6 3 3 5 4 4 6 8
10 5 6 9 10 12 13 13 8 6 5 7 2 12 18 18 17 13 16 18 20 20 18 17 15 15 18 20 18 19 18 18 17 18 14 17 11 9 7 6 6 5 6 7
5 10 11 10 8 14 3 5 7 2 5 6 10 8 10 2 11 15 19 18 19 17 14 14 14 16 16 14 17 18 19 19 18 18 17 14 14 10 7 7 8 6 5 5
2 2 4 1 4 7 13 8 5 3 1 10 10 11 9 11 7 5 6 10 10 9 10 9 8 8 10 10 14 14 17 19 19 19 20 19 18 13 9 9 9 6 5 5
5 7 2 3 7 3 5 9 4 5 6 12 3 9 14 6 10 8 13 17 4 3 5 4 5 6 7 10 12 14 18 20 19 19 20 19 18 16 15 12 9 10 7 7
12 12 14 11 14 10 13 10 8 8 7 9 3 13 8 9 8 13 15 18 12 9 8 8 7 6 7 10 12 14 16 18 18 18 18 16 17 11 11 10 10 9 10 11
7 9 1 2 4 13 8 12 9 6 2 4 10 20 19 12 16 13 17 15 15 11 10 12 9 8 8 9 11 13 14 14 16 18 16 17 15 15 12 10 12 11 11 9
6 10 2 1 2 1 8 8 6 5 7 11 12 14 16 5 7 10 11 9 9 10 10 7 6 5 5 7 10 12 14 14 14 16 15 14 16 16 14 12 14 11 11 11
9 5 3 4 11 13 7 11 3 3 6 7 8 12 7 12 11 10 8 8 6 6 8 6 5 4 5 6 9 11 12 13 13 15 15 15 14 14 12 11 11 11 11 11
5 1 10 18 3 2 6 15 21 9 7 5 5 17 3 4 1 2 8 5 6 4 3 4 5 5 5 7 8 10 11 13 14 15 16 16 14 14 14 11 12 11 11 12
8 2 4 5 3 2 9 11 9 18 3 11 12 17 1 5 6 4 4 4 5 4 4 4 5 6 6 8 9 10 12 13 13 14 15 16 16 15 15 13 12 14 13 12
5 10 11 13 5 4 7 15 18 18 11 22 19 30 21 7 5 6 7 5 6 6 7 7 8 8 9 9 8 11 12 12 13 14 16 16 16 16 15 12 12 12 14 13
4 7 11 22 23 17 15 11 20 22 29 23 28 25 35 18 18 18 19 22 14 15 10 12 12 12 10 9 10 15 12 13 14 16 16 16 13 14 13 12 11 11 12 12
12 13 15 23 25 24 19 15 18 25 26 21 29 30 34 25 22 17 17 17 16 18 19 17 11 11 11 13 15 13 14 15 15 16 16 13 13 12 12 11 12 12 12 12
3 0 2 20 20 15 16 28 30 24 23 24 25 34 26 25 20 19 18 16 19 20 19 17 13 11 10 11 11 13 13 11 14 14 12 12 12 13 12 12 13 13 13 13
9 8 4 8 9 14 6 16 23 27 27 25 24 28 30 24 18 15 17 17 18 16 15 15 14 13 9 7 7 9 8 11 11 12 11 10 11 12 11 12 12 12 11 13
20 12 8 9 12 12 18 8 8 13 24 25 28 31 32 30 12 25 22 15 19 18 14 9 8 10 10 8 6 6 7 9 10 13 12 12 12 12 11 12 11 10 10 10
15 18 13 10 13 11 12 6 4 5 15 20 18 25 28 15 11 18 3 3 4 4 4 6 8 8 8 5 3 6 7 9 10 9 9 9 11 12 13 13 12 10 9 9
2 7 18 17 14 7 8 4 3 9 6 4 4 10 7 7 12 7 4 5 2 3 7 7 7 6 7 6 1 3 4 6 4 6 7 8 8 9 9 10 9 10 9 9
7 5 3 8 9 9 9 2 5 8 6 10 7 2 6 8 9 8 6 6 7 8 7 6 5 4 5 3 1 2 2 3 5 7 7 7 8 7 8 10 10 10 11 10
12 9 6 5 6 10 5 13 11 3 4 4 6 11 5 7 11 10 6 4 5 6 6 5 3 2 4 4 2 3 3 5 6 7 7 8 8 8 9 10 10 9 9 8
10 10 10 13 17 12 5 3 2 1 3 5 3 13 5 7 10 9 5 3 2 3 3 1 3 5 7 7 6 6 5 6 7 8 8 8 9 9 8 7 7 8 8 8
7 3 6 10 10 7 5 5 3 4 3 5 5 5 6 6 6 4 3 2 1 3 2 4 6 6 7 7 8 7 4 4 7 8 7 7 7 7 8 6 5 5 4 7
13 18 12 15 14 7 8 4 3 6 5 5 6 6 3 3 6 3 2 1 3 5 6 7 7 7 7 8 9 8 7 5 5 7 5 5 5 5 5 6 5 6 6 8
Wind_Direction
70 214 213 223 220 156 122 177 250 245 166 259 256 268 269 271 271 261 255 253 252 246 243 229 219 212 210 209 207 205 200 201 196 194 190 207 207 203 194 197 188 179 169 160
169 226 234 106 156 178 200 247 257 282 200 230 277 274 277 265 257 256 259 259 253 253 241 228 218 211 207 206 207 205 206 200 198 200 199 194 190 207 201 182 194 178 171 166
213 180 173 162 168 195 224 231 242 262 319 232 292 266 257 259 256 261 259 257 259 255 254 244 222 215 211 211 208 207 203 201 199 199 189 179 158 160 165 198 190 190 177 164
239 165 158 180 209 199 236 211 233 261 293 276 294 290 276 271 256 239 254 252 253 253 250 252 241 214 211 212 207 207 204 203 203 196 191 196 198 190 193 177 179 172 189 161
197 184 188 202 210 188 219 131 174 171 245 312 223 257 265 250 270 253 248 253 256 257 257 252 234 228 222 212 207 204 201 202 199 199 202 200 208 204 172 170 169 162 184 158
306 10 205 274 76 175 141 100 82 93 229 260 251 236 261 250 244 272 262 258 263 265 251 252 260 252 234 206 199 203 207 208 201 199 205 206 205 188 164 179 181 170 176 174
173 213 181 178 109 90 215 166 200 221 196 251 70 246 247 277 257 237 272 285 308 262 247 238 223 213 206 210 209 200 203 209 205 205 206 207 211 198 190 178 180 169 178 191
212 230 187 180 216 177 199 204 207 223 214 260 117 241 255 230 270 274 273 275 276 255 240 245 225 217 209 201 207 204 206 210 205 206 209 207 210 204 202 189 189 189 191 195
195 243 243 243 196 180 173 213 248 271 113 290 249 261 268 235 258 242 256 262 274 263 241 252 234 214 194 195 205 213 210 215 208 207 205 203 198 200 192 183 203 202 196 185
213 260 153 95 169 228 221 143 180 208 225 236 252 263 257 280 275 252 255 263 285 277 248 236 239 228 214 201 194 205 208 208 210 214 210 206 198 199 193 181 191 187 189 172
214 245 134 155 208 194 185 213 221 254 223 238 258 253 246 251 250 264 291 295 305 296 243 223 228 219 228 208 205 205 208 207 204 210 210 205 197 195 185 182 180 179 173 162
201 358 250 234 150 270 252 234 208 211 204 244 286 265 172 227 194 338 303 292 318 326 312 219 206 211 213 226 220 214 211 212 205 205 206 206 200 198 190 184 183 173 171 171
169 179 247 250 196 171 224 215 236 234 23 223 225 255 288 236 273 242 292 275 283 283 290 264 244 227 226 229 231 217 218 220 208 203 203 204 204 200 200 191 182 183 177 173
298 180 214 235 256 121 199 215 211 212 225 239 236 255 246 212 254 250 274 276 265 267 247 252 244 230 228 230 225 238 218 214 208 205 205 206 202 198 197 184 181 181 182 174
247 240 234 252 258 255 249 236 210 214 228 231 252 247 264 257 261 267 277 289 285 272 266 246 235 235 230 232 231 233 222 211 206 208 209 207 197 194 190 179 175 175 178 181
248 254 249 263 249 240 242 237 227 216 231 240 250 263 262 268 263 257 252 251 264 274 276 275 252 242 224 224 226 220 218 211 201 208 210 200 191 184 180 173 170 172 178 178
278 281 246 250 272 263 236 228 236 239 232 232 238 246 259 261 257 260 268 260 257 261 265 274 267 259 247 232 227 224 221 202 201 208 203 196 185 182 181 172 170 177 180 176
241 240 249 266 283 256 274 261 241 244 245 245 250 260 264 266 274 267 246 261 265 258 263 265 271 278 278 257 225 224 190 189 192 204 201 190 185 183 175 175 179 179 179 182
208 222 252 251 255 289 287 264 207 218 248 238 239 250 258 265 275 268 262 250 258 265 275 286 294 290 291 277 254 192 183 187 191 199 197 188 183 178 174 179 178 176 175 180
236 226 225 234 244 254 286 330 311 286 258 267 237 241 251 262 247 265 294 235 279 317 331 322 321 311 303 307 208 183 189 184 201 200 198 181 176 174 175 173 173 172 172 172
200 223 226 233 245 253 254 168 192 190 265 321 19 284 272 233 239 301 358 316 328 327 320 325 320 314 327 330 207 179 167 205 176 145 144 157 169 168 169 157 153 148 148 142
217 281 235 216 219 224 23 340 242 347 315 308 278 279 335 320 299 292 306 305 326 336 340 345 327 351 353 11 111 136 190 131 130 132 136 142 141 140 144 142 141 142 142 143
248 222 247 193 280 267 173 236 277 218 234 288 327 319 345 315 295 306 301 323 340 347 335 343 341 49 31 17 41 127 112 121 112 113 118 122 125 129 140 141 140 145 150 150
240 252 259 276 263 259 224 255 174 199 250 278 271 273 305 269 284 293 310 309 325 1 347 17 75 47 29 16 41 86 111 111 111 109 114 125 128 137 141 139 150 157 159 163
249 159 229 260 275 270 207 206 217 271 285 290 271 250 273 290 278 280 278 290 48 81 48 48 62 58 46 45 45 40 75 98 112 116 120 126 130 136 129 132 154 154 166 176
235 243 245 255 274 256 279 229 212 268 271 260 275 291 239 256 274 175 204 223 133 111 100 85 75 71 45 46 45 19 11 72 103 109 111 118 125 124 128 120 91 109 141 177